Main page
METAR-TAF:

METAR-TAF

Airports :

Johnson County Airport

Buffalo, Wyoming, United States

latitude: 44-22-53N, longitude: 106-43-08W, elevation: 4966 ft

Current weather observation

The report was made 1 hour and 1 minutes ago, at 09:53 UTC
Wind 33 mph from the North/Northwest with gusts up to 55 mph
Temperature 48°F
Humidity 66%
Pressure 29.72 in. Hg
Visibility: 10 miles
Scattered clouds at a height of 5500 ft

METAR: KBYG 160953Z AUTO 33029G48KT 10SM SCT055 09/03 A2972 RMK AO2 PK WND 34048/0945 SLP032 T00940033

Time: 04:54 (10:54 UTC)


TAF: missing

Weather observations and forecasts of more than 4000 airports (METAR and TAF reports).

The available stations are represented by yellow and red dots on the map.

Hover mouse over dot to see the name of the station.

Then click to see weather observations and forecasts.

To change the map : click on the green buttons with a black cross to zoom in, on the green button with a dash to zoom out, or on the green arrows for adjacent maps.


METAR-TAF: